Regional Weather Roundup
Issued by NWS

Home | Current Version | Previous Version | Graphics & Text | Print | Product List | Glossary On
Versions: 1 2 3 4 5 6 7 8 9 10 11 12 13 14 15 16 17 18 19 20 21 22 23 24 25 26 27 28 29 30 31 32 33 34 35 36 37 38 39 40 41 42 43 44 45 46 47 48 49 50
000
ASUS43 KFSD 201510
RWRSD

WEATHER ROUNDUP FOR SOUTH DAKOTA
NATIONAL WEATHER SERVICE SIOUX FALLS SD
1000 AM CDT WED AUG 20 2014

NOTE: "FAIR" INDICATES FEW OR NO CLOUDS BELOW 12,000 FEET WITH NO
SIGNIFICANT WEATHER AND/OR OBSTRUCTIONS TO VISIBILITY.


SDZ001>005-009-010-012>017-201600-
NORTHWEST AND NORTH CENTRAL SOUTH DAKOTA

CITY           SKY/WX    TMP DP  RH WIND       PRES   REMARKS
BUFFALO          N/A     76  62  62 E6        29.66R
FAITH            N/A     72  64  76 S13       29.71S
MOBRIDGE       CLOUDY    71  64  78 SE13      29.71R
$$

SDZ012>016-024>037-041>051-057-063-072>074-201600-
SOUTHWEST AND SOUTH CENTRAL SOUTH DAKOTA

CITY           SKY/WX    TMP DP  RH WIND       PRES   REMARKS
RAPID CTY ARPT CLOUDY    69  62  78 CALM      29.73F
PIERRE         CLOUDY    73  67  81 SE18      29.69F
CUSTER         CLOUDY    68  49  50 W9        29.89S
ELLSWORTH AFB  CLOUDY    68  61  76 CALM      29.73F
PHILIP         CLOUDY    75  64  68 E5        29.70S
PINE RIDGE     CLOUDY    70  62  76 E3        29.78S
WINNER         FAIR      75  68  78 SE13      29.74F
$$

SDZ004>011-016>023-039-040-201600-
NORTHEAST SOUTH DAKOTA

CITY           SKY/WX    TMP DP  RH WIND       PRES   REMARKS
ABERDEEN       SUNNY     75  66  73 S13G21    29.76S
WATERTOWN      MOSUNNY   74  65  73 S10       29.81R
SISSETON         N/A     74  67  78 SE7       29.77F
$$

SDZ017-020-022-023-036>040-048>070-201600-
SOUTHEAST SOUTH DAKOTA

CITY           SKY/WX    TMP DP  RH WIND       PRES   REMARKS
SIOUX FALLS    CLOUDY    73  67  81 SE14      29.78F
HURON          SUNNY     77  67  71 SE9       29.75S
CHAMBERLAIN    MOSUNNY   76  69  79 SE14G21   29.73F
MITCHELL       PTSUNNY   75  67  76 S16G24    29.74F
YANKTON        CLOUDY    72  64  78 SE10      29.76F
$$

ABBREVIATIONS USED IN REMARKS
   TC - TEMPERATURE IN CELSIUS
  WCI - WIND CHILL INDEX
   HX - HEAT INDEX
  VSB - VISIBILITY



USA.gov is the U.S. government's official web portal to all federal, state and local government web resources and services.